EW1433 Weather Reports


time (UTC)temp
C
wind
direction
speed
KPH
gust
KPH
rain 1hr
cm
rain 24hr
cm
rain mn
cm
humidity
%
barometer
mb
20260503193902 17 172 0.0 9.7 0.00 0.00 0.00 55 1012.7
20260503193405 17 330 1.6 9.7 0.00 0.00 0.00 55 1012.7
20260503192905 17 278 0.0 0.0 0.00 0.00 0.00 55 1012.7
20260503192405 17 327 0.0 0.0 0.00 0.00 0.00 55 1012.7
20260503191905 17 319 0.0 0.0 0.00 0.00 0.00 57 1012.8
20260503191405 17 188 0.0 0.0 0.00 0.00 0.00 55 1012.8
20260503190903 17 200 0.0 0.0 0.00 0.00 0.00 55 1012.8
20260503190404 -17 289 0.0 0.0 0.00 0.00 0.00 1012.8
20260503185903 -17 182 0.0 0.0 0.00 0.00 0.00 1012.8
20260503185728 18 223 0.0 1.6 0.00 0.00 0.00 54 1012.8
20260503185427 18 179 0.0 0.0 0.00 0.00 0.00 54 1012.8
20260503184402 18 179 0.0 1.6 0.00 0.00 0.00 52 1012.8
20260503183905 18 171 0.0 1.6 0.00 0.00 0.00 53 1012.7
20260503183405 18 196 0.0 1.6 0.00 0.00 0.00 53 1012.8
20260503182905 17 0.0 0.0 0.00 0.00 0.00 59 1012.8
20260503182401 17 0.0 0.0 0.00 0.00 0.00 59 1012.9
20260503181901 17 90 0.0 0.0 0.00 0.00 0.00 60 1012.9
20260503181406 16 90 0.0 4.8 0.00 0.00 0.00 62 1012.9
20260503180904 15 317 0.0 4.8 0.00 0.00 0.00 63 1012.9
20260503180656 15 355 0.0 0.0 0.00 0.00 0.00 63 1012.9
20260503175905 15 299 0.0 0.0 0.00 0.00 0.00 65 1013.0
20260503175406 15 35 0.0 0.0 0.00 0.00 0.00 65 1012.9
20260503174905 15 35 0.0 0.0 0.00 0.00 0.00 64 1013.0
20260503174405 15 324 0.0 0.0 0.00 0.00 0.00 63 1012.9
20260503173906 15 240 0.0 0.0 0.00 0.00 0.00 72 1013.0
20260503173352 15 240 0.0 0.0 0.00 0.00 0.00 72 1012.9
20260503172851 13 200 0.0 0.0 0.00 0.00 0.00 73 1012.9
20260503172351 13 200 0.0 0.0 0.00 0.00 0.00 73 1012.9
20260503171851 13 351 0.0 1.6 0.00 0.00 0.00 74 1012.9
20260503171351 -17 351 0.0 1.6 0.00 0.00 0.00 1012.9
20260503170837 15 331 0.0 0.0 0.00 0.00 0.00 71 1012.9
20260503170335 15 292 0.0 0.0 0.00 0.00 0.00 71 1012.9
20260503160105 14 193 0.0 0.0 0.00 0.00 0.00 71 1012.8
20260503150802 13 192 0.0 0.0 0.00 0.00 0.00 74 1012.4
20260503150305 13 0.0 0.0 0.00 0.00 0.00 74 1012.3
20260503140240 12 137 0.0 0.0 0.00 0.00 0.00 77 1011.7
20260503130739 12 137 0.0 0.0 0.00 0.00 0.00 76 1011.1
20260503130238 12 137 0.0 0.0 0.00 0.00 0.00 76 1011.0
20260503110709 13 298 0.0 0.0 0.00 0.00 0.00 73 1011.0
20260503110208 13 298 0.0 0.0 0.00 0.00 0.00 73 1011.0
20260503090445 13 306 0.0 0.0 0.00 0.00 0.00 73 1011.1
20260503081447 -17 306 0.0 0.0 0.00 0.00 0.00 1011.5
20260503080711 13 306 0.0 0.0 0.00 0.00 0.00 72 1011.6
20260503080212 13 306 0.0 0.0 0.00 0.00 0.00 72 1011.7
20260503072702 13 51 0.0 0.0 0.00 0.00 0.00 72 1011.8
20260503072202 13 51 0.0 0.0 0.00 0.00 0.00 72 1011.9
20260503071702 13 51 0.0 0.0 0.00 0.00 0.00 71 1011.9
20260503071201 13 51 0.0 0.0 0.00 0.00 0.00 71 1011.9
20260503070703 13 51 0.0 0.0 0.00 0.00 0.00 72 1011.9
20260503070202 13 51 0.0 0.0 0.00 0.00 0.00 72 1011.8
20260503060153 13 72 0.0 0.0 0.00 0.00 0.00 71 1012.0
20260503054653 14 58 0.0 0.0 0.00 0.00 0.00 70 1012.0
20260503054155 14 58 0.0 0.0 0.00 0.00 0.00 70 1012.1
20260503053656 -17 58 0.0 0.0 0.00 0.00 0.00 1012.1
20260503053157 -17 58 0.0 0.0 0.00 0.00 0.00 1012.1
20260503052656 14 0.0 0.0 0.00 0.00 0.00 70 1012.1
20260503052142 14 0.0 0.0 0.00 0.00 0.00 70 1012.2
20260503051642 14 51 0.0 0.0 0.00 0.00 0.00 70 1012.2
20260503051142 14 51 0.0 0.0 0.00 0.00 0.00 70 1012.3
20260503050642 -17 51 0.0 0.0 0.00 0.00 0.00 1012.2
20260503050141 14 310 0.0 0.0 0.00 0.00 0.00 70 1012.2
20260503045642 14 310 0.0 0.0 0.00 0.00 0.00 70 1012.1
20260503045141 14 310 0.0 0.0 0.00 0.00 0.00 69 1012.1
20260503044642 14 20 0.0 0.0 0.00 0.00 0.00 69 1012.0
20260503044141 14 20 0.0 0.0 0.00 0.00 0.00 69 1012.0
20260503043640 14 39 0.0 0.0 0.00 0.00 0.00 69 1012.0
20260503043425 14 278 0.0 0.0 0.00 0.00 0.00 69 1011.9
20260503042642 14 278 0.0 0.0 0.00 0.00 0.00 69 1011.9
20260503042141 14 278 0.0 0.0 0.00 0.00 0.00 69 1011.9
20260503041642 14 0.0 0.0 0.00 0.00 0.00 69 1011.9
20260503041142 14 49 0.0 0.0 0.00 0.00 0.00 68 1011.7
20260503040641 14 49 0.0 0.0 0.00 0.00 0.00 68 1011.8
20260503040138 14 49 0.0 0.0 0.00 0.00 0.00 68 1011.6
20260503035925 14 52 0.0 0.0 0.00 0.00 0.00 68 1011.7
20260503035131 14 42 0.0 0.0 0.00 0.00 0.00 68 1011.5
20260503034630 14 264 0.0 0.0 0.00 0.00 0.00 67 1011.5
20260503034131 14 35 0.0 0.0 0.00 0.00 0.00 67 1011.5
20260503033631 15 336 0.0 0.0 0.00 0.00 0.00 67 1011.3
20260503033131 15 0.0 0.0 0.00 0.00 0.00 66 1011.3
20260503032630 15 0.0 0.0 0.00 0.00 0.00 66 1011.3
20260503032130 15 6 0.0 0.0 0.00 0.00 0.00 66 1011.3
20260503031631 -17 6 0.0 0.0 0.00 0.00 0.00 1011.1
20260503031130 15 47 0.0 0.0 0.00 0.00 0.00 66 1011.1
20260503030627 15 47 0.0 0.0 0.00 0.00 0.00 66 1011.2
20260503030106 15 6 0.0 0.0 0.00 0.00 0.00 66 1011.1
20260503025605 15 292 0.0 0.0 0.00 0.00 0.00 66 1011.0
20260503025057 15 0.0 0.0 0.00 0.00 0.00 66 1011.0
20260503024557 15 0.0 0.0 0.00 0.00 0.00 66 1011.0
20260503024057 15 307 0.0 0.0 0.00 0.00 0.00 66 1011.0
20260503023600 16 307 0.0 0.0 0.00 0.00 0.00 66 1010.8
20260503023057 16 52 0.0 0.0 0.00 0.00 0.00 66 1010.8
20260503022555 16 55 0.0 0.0 0.00 0.00 0.00 65 1010.8
20260503022056 16 55 0.0 0.0 0.00 0.00 0.00 65 1010.7
20260503021555 16 11 0.0 0.0 0.00 0.00 0.00 65 1010.6
20260503021359 16 32 0.0 0.0 0.00 0.00 0.00 65 1010.7
20260503020555 16 32 0.0 0.0 0.00 0.00 0.00 65 1010.7
20260503020057 16 47 0.0 0.0 0.00 0.00 0.00 65 1010.7
20260503015556 16 45 0.0 0.0 0.00 0.00 0.00 64 1010.7
20260503015359 17 302 0.0 0.0 0.00 0.00 0.00 64 1010.7
20260503014546 17 51 0.0 0.0 0.00 0.00 0.00 64 1010.8
20260503014035 17 41 0.0 0.0 0.00 0.00 0.00 64 1010.7
20260503013918 17 37 0.0 0.0 0.00 0.00 0.00 64 1010.8
20260503013617 18 37 0.0 1.6 0.00 0.00 0.00 62 1010.8
20260503013601 17 37 0.0 0.0 0.00 0.00 0.00 64 1010.8
20260503012030 18 17 0.0 1.6 0.00 0.00 0.00 62 1010.7
20260503011911 18 337 0.0 0.0 0.00 0.00 0.00 61 1010.7
20260503011555 18 300 0.0 1.6 0.00 0.00 0.00 62 1010.8
20260503010530 18 17 0.0 0.0 0.00 0.00 0.00 62 1010.7
20260503010032 18 3 0.0 0.0 0.00 0.00 0.00 61 1010.8
20260503005807 18 42 0.0 0.0 0.00 0.00 0.00 61 1010.7
20260503005030 18 31 0.0 0.0 0.00 0.00 0.00 61 1010.7
20260503004530 18 288 0.0 0.0 0.00 0.00 0.00 60 1010.7
20260503004029 -17 42 0.0 0.0 0.00 0.00 0.00 1010.8
20260503003531 19 0 0.0 0.0 0.00 0.00 0.00 57 1010.8
20260503003030 19 0.0 0.0 0.00 0.00 0.00 57 1010.7
20260503002530 20 0.0 0.0 0.00 0.00 0.00 57 1010.7
20260503002310 20 0.0 0.0 0.00 0.00 0.00 57 1010.7
20260503001530 20 0.0 0.0 0.00 0.00 0.00 58 1010.7
20260503001031 20 0.0 0.0 0.00 0.00 0.00 55 1010.7
20260503000530 21 0.0 0.0 0.00 0.00 0.00 57 1010.7
20260503000034 21 31 1.6 3.2 0.00 0.00 0.00 56 1010.8
20260502235759 21 31 1.6 3.2 0.00 0.00 0.00 56 1010.8
20260502235021 21 324 0.0 0.0 0.00 0.00 0.00 56 1010.7
20260502234520 21 25 0.0 0.0 0.00 0.00 0.00 55 1010.7
20260502234024 21 358 0.0 0.0 0.00 0.00 0.00 54 1010.8
20260502233804 -17 310 0.0 0.0 0.00 0.00 0.00 1010.8
20260502233039 21 313 0.0 0.0 0.00 0.00 0.00 55 1010.9
20260502233034 -17 310 0.0 0.0 0.00 0.00 0.00 1010.9
20260502232255 21 341 0.0 0.0 0.00 0.00 0.00 55 1010.9
20260502231755 21 354 0.0 0.0 0.00 0.00 0.00 55 1010.9
20260502231005 -17 353 0.0 0.0 0.00 0.00 0.00 1011.1
20260502230507 -17 23 0.0 1.6 0.00 0.00 0.00 1011.1
20260502230003 21 324 0.0 1.6 0.00 0.00 0.00 55 1011.2
20260502225504 21 0 0.0 1.6 0.00 0.00 0.00 55 1011.2
20260502224930 21 340 0.0 1.6 0.00 0.00 0.00 56 1011.3
20260502224434 21 37 0.0 0.0 0.00 0.00 0.00 56 1011.4
20260502224206 21 37 0.0 0.0 0.00 0.00 0.00 56 1011.4
20260502223432 21 257 0.0 0.0 0.00 0.00 0.00 55 1011.4
20260502222930 22 345 0.0 0.0 0.00 0.00 0.00 55 1011.5
20260502222429 22 345 0.0 1.6 0.00 0.00 0.00 51 1011.5
20260502221929 22 313 0.0 1.6 0.00 0.00 0.00 51 1011.5
20260502221429 22 329 0.0 0.0 0.00 0.00 0.00 51 1011.7
20260502220930 22 340 0.0 0.0 0.00 0.00 0.00 55 1011.8
20260502220656 22 0.0 0.0 0.00 0.00 0.00 55 1011.9
20260502220212 22 34 0.0 0.0 0.00 0.00 0.00 55 1011.9
20260502215430 22 34 0.0 0.0 0.00 0.00 0.00 56 1012.0
20260502214930 21 289 0.0 0.0 0.00 0.00 0.00 56 1012.0
20260502214721 21 314 0.0 0.0 0.00 0.00 0.00 56 1012.1
20260502214206 21 0.0 0.0 0.00 0.00 0.00 56 1012.1
20260502213430 21 293 0.0 0.0 0.00 0.00 0.00 53 1012.2
20260502212931 21 293 0.0 0.0 0.00 0.00 0.00 54 1012.2
20260502212430 21 307 0.0 0.0 0.00 0.00 0.00 54 1012.0
20260502211931 22 351 0.0 0.0 0.00 0.00 0.00 53 1012.1
20260502211707 21 334 0.0 1.6 0.00 0.00 0.00 55 1012.3
20260502211626 22 326 0.0 0.0 0.00 0.00 0.00 54 1012.1
20260502211112 21 334 0.0 1.6 0.00 0.00 0.00 56 1012.3
20260502211040 22 0 0.0 0.0 0.00 0.00 0.00 54 1012.1
20260502205431 21 178 0.0 0.0 0.00 0.00 0.00 55 1012.4
20260502204930 21 155 0.0 0.0 0.00 0.00 0.00 55 1012.5
20260502204429 20 116 0.0 0.0 0.00 0.00 0.00 59 1012.6
20260502203930 20 155 0.0 0.0 0.00 0.00 0.00 59 1012.6
20260502203407 20 197 0.0 0.0 0.00 0.00 0.00 56 1012.7
20260502202903 20 197 0.0 0.0 0.00 0.00 0.00 58 1012.8
20260502202403 20 202 0.0 0.0 0.00 0.00 0.00 57 1012.8
20260502201901 20 162 0.0 0.0 0.00 0.00 0.00 57 1012.9
20260502201403 20 180 0.0 0.0 0.00 0.00 0.00 56 1013.1
20260502200902 20 144 0.0 0.0 0.00 0.00 0.00 56 1013.1
20260502200401 20 224 0.0 0.0 0.00 0.00 0.00 57 1013.1
20260502195902 20 166 0.0 0.0 0.00 0.00 0.00 57 1013.2
20260502195403 20 166 0.0 0.0 0.00 0.00 0.00 59 1013.2
20260502194901 20 209 0.0 0.0 0.00 0.00 0.00 59 1013.3
20260502194702 20 199 0.0 0.0 0.00 0.00 0.00 60 1013.3